Weather History for KCUT - August, 2013

Change the Weather History Date:

Monday, August 19, 2013

  Actual Average Record
Temperature  
Mean Temperature 67 °F 64 °F  
Max Temperature 81 °F 78 °F 95 °F (1986)
Min Temperature 53 °F 50 °F 30 °F (1978)
Degree Days  
Heating Degree Days 0 3  
Month to date heating degree days 49 45  
Since 1 June heating degree days 284 326  
Since 1 July heating degree days 91 106  
Cooling Degree Days 2 2  
Month to date cooling degree days 14 38  
Year to date cooling degree days 88 145  
Since 1 June cooling degree days 86 144  
Growing Degree Days 18 (Base 50)    
Moisture  
Dew Point 51 °F    
Average Humidity 59    
Maximum Humidity 86    
Minimum Humidity 31    
Precipitation  
Precipitation 0.00 in 0.07 in 0.91 in (1993)
Month to date precipitation 3.89 1.31  
Year to date precipitation 15.89 14.08  
Sea Level Pressure  
Sea Level Pressure 29.95 in    
Wind  
Wind Speed 5 mph (North)    
Max Wind Speed 12 mph    
Max Gust Speed 15 mph    
Visibility 10 miles    
Events      
T = Trace of Precipitation, MM = Missing Value Source: NWS Daily Summary

Daily Weather History Graph

Daily Weather History Graph

Search for Another Location

Airport or City:

Trip Planner

Search our weather history database for the weather conditions in past years. The results will help you decide how hot, cold, wet, or windy it might be!

Date:

Astronomy

Aug. 19, 2013 Rise Set
Actual Time 6:03 AM MDT 7:51 PM MDT
Civil Twilight 5:33 AM MDT 8:22 PM MDT
Nautical Twilight 4:55 AM MDT 8:59 PM MDT
Astronomical Twilight 4:15 AM MDT 9:39 PM MDT
Moon 6:44 PM MDT (8/19) 4:24 AM MDT (8/19)
Length of Visible Light 14h 49m
Length of Day
13h 47m
Waxing Gibbous, 97% of the Moon is Illuminated
Aug 19
Waxing Gibbous
Aug 20
Full
Aug 28
Last Quarter
Sep 5
New
Sep 12
First Quarter

Hourly Weather History & Observations

Time (MDT) Temp. Dew Point Humidity Pressure Visibility Wind Dir Wind Speed Gust Speed Precip Events Conditions
12:53 AM 63.0 °F 57.0 °F 81% 29.98 in 10.0 mi NNW 5.8 mph - N/A   Clear
1:53 AM 64.0 °F 55.0 °F 73% 29.95 in 10.0 mi NW 4.6 mph - N/A   Clear
2:53 AM 60.1 °F 54.0 °F 80% 29.95 in 10.0 mi West 4.6 mph - N/A   Clear
3:53 AM 55.9 °F 52.0 °F 87% 29.95 in 10.0 mi NW 4.6 mph - N/A   Clear
4:53 AM 55.9 °F 48.9 °F 77% 29.96 in 10.0 mi East 5.8 mph - N/A   Clear
5:53 AM 55.0 °F 50.0 °F 83% 29.97 in 10.0 mi North 3.5 mph - N/A   Clear
6:53 AM 55.0 °F 50.0 °F 83% 29.99 in 10.0 mi NNW 4.6 mph - N/A   Clear
7:53 AM 62.1 °F 54.0 °F 75% 29.99 in 10.0 mi North 4.6 mph - N/A   Clear
8:53 AM 71.1 °F 52.0 °F 51% 29.98 in 10.0 mi ENE 4.6 mph - N/A   Clear
9:53 AM 73.0 °F 46.0 °F 38% 29.98 in 10.0 mi ENE 9.2 mph - N/A   Clear
10:53 AM 75.9 °F 46.9 °F 36% 29.98 in 10.0 mi ENE 5.8 mph - N/A   Clear
11:53 AM 77.0 °F 45.0 °F 32% 29.98 in 10.0 mi East 9.2 mph - N/A   Clear
12:53 PM 79.0 °F 46.9 °F 32% 29.96 in 10.0 mi ESE 6.9 mph - N/A   Clear
1:53 PM 79.0 °F 46.9 °F 32% 29.94 in 10.0 mi Variable 3.5 mph - N/A   Clear
2:53 PM 80.1 °F 48.0 °F 32% 29.95 in 10.0 mi Variable 4.6 mph - N/A   Clear
3:53 PM 80.1 °F 50.0 °F 35% 29.94 in 10.0 mi Variable 6.9 mph - N/A   Clear
4:53 PM 80.1 °F 48.0 °F 32% 29.93 in 10.0 mi Variable 6.9 mph - N/A   Clear
5:53 PM 79.0 °F 48.9 °F 35% 29.93 in 10.0 mi South 6.9 mph - N/A   Clear
6:53 PM 75.9 °F 53.1 °F 45% 29.92 in 10.0 mi Calm Calm - N/A   Clear
7:53 PM 72.0 °F 55.0 °F 55% 29.91 in 10.0 mi Calm Calm - N/A   Clear
8:53 PM 66.9 °F 55.0 °F 66% 29.91 in 10.0 mi Calm Calm - N/A   Clear
9:53 PM 64.0 °F 54.0 °F 70% 29.91 in 10.0 mi Calm Calm - N/A   Clear
10:53 PM 60.1 °F 53.1 °F 78% 29.91 in 10.0 mi NNW 3.5 mph - N/A   Clear
11:53 PM 60.1 °F 53.1 °F 78% 29.90 in 10.0 mi NW 3.5 mph - N/A   Clear